Location: B?ogocice
(50.2413°N, 20.2361°E)
Time: 23:17:38
(UTC+00:00)

Cosmos 2218 Rocket - Pass Details

Date: 15 June 2024
Orbit: 955 x 1006 km, 82.9° (Epoch: 18 July)

Event Time Altitude Azimuth Distance (km) Brightness Sun altitude
Exits shadow 01:04:26 12° 212° (SSW) 2,565 5.5 -9.8°
Maximum altitude 01:10:01 50° 286° (WNW) 1,219 4.4 -9.3°
Drops below altitude 10° 01:16:02 10° 2° (N) 2,710 7.3 -8.7°
Sets 01:18:38 0° 7° (N) 3,655 8.2 -8.5°
